Regional Weather Roundup
Issued by NWS Cleveland, OH

Home | Current Version | Previous Version | Text Only | Print | Product List | Glossary Off
Versions: 1 2 3 4 5 6 7 8 9 10 11 12 13 14 15 16 17 18 19 20 21 22 23 24 25 26 27 28 29 30 31 32 33 34 35 36 37 38 39 40 41 42 43 44 45 46 47 48 49 50

000
ASUS41 KCLE 280012
RWRCLE
OHIO REGIONAL WEATHER ROUNDUP
NATIONAL WEATHER SERVICE WILMINGTON, OH
800 PM EDT SAT MAY 27 2017

NOTE: "FAIR" INDICATES FEW OR NO CLOUDS BELOW 12,000 FEET WITH NO
SIGNIFICANT WEATHER AND/OR OBSTRUCTIONS TO VISIBILITY.

OHZ001>008-015>018-024>027-034-035-043-044-280100-
   NORTHWEST OHIO

CITY           SKY/WX    TMP DP  RH WIND       PRES   REMARKS
DEFIANCE       MOCLDY    70  57  63 E9        29.86F
FINDLAY        CLOUDY    71  54  54 NE13      29.86S
TOLEDO EXPRESS CLOUDY    69  52  54 E7        29.88R
TOLEDO EXEC    MOCLDY    69  55  60 E10       29.88F
LIMA           FAIR      70  63  78 NE10      29.85F
$$

OHZ009>014-019>023-028>033-038-089-280100-
   NORTHEAST OHIO

CITY           SKY/WX    TMP DP  RH WIND       PRES   REMARKS
CLE-HOPKINS    MOCLDY    69  51  52 NE9       29.91S
CLE-LAKEFRONT  FAIR      64  56  75 NE6       29.88F
CUY CO. ARPT   PTCLDY    70  54  56 E12       29.90F
LORAIN-ELYRIA  MOCLDY    66  49  54 E9        29.90R
ASHTABULA      FAIR      66  51  58 CALM      29.92S
AKRON-CANTON   FAIR      73  58  59 NE6       29.88S
WOOSTER        FAIR      70  62  76 NE3       29.89R
MANSFIELD      MOCLDY    71  62  73 NE9       29.89R
YOUNGSTOWN     MOCLDY    69  55  60 N9        29.90R
$$

OHZ042-051>053-060>062-070>072-077>081-280100-
  SOUTHWEST OHIO

CITY           SKY/WX    TMP DP  RH WIND       PRES   REMARKS
CINC-COVINGTON MOCLDY    77  69  76 SW7       29.83S
CINC-LUNKEN    FAIR      80  70  71 CALM      29.82R
HAMILTON       FAIR      79  71  76 N3        29.82S
DAYTON         MOCLDY    77  64  64 CALM      29.85R
WRIGHT-PAT AFB MOCLDY    77  67  69 N3        29.83S
DAYTON GENERAL FAIR      79  63  57 CALM      29.83R
WILMINGTON     MOCLDY    78  66  66 CALM      29.84R
$$

OHZ036-037-039>041-045>050-054>059-063>069-073>076-082>088-280100-
  CENTRAL AND SOUTHEAST OHIO

CITY           SKY/WX    TMP DP  RH WIND       PRES   REMARKS
COLUMBUS       MOCLDY    77  66  68 N6        29.84R
OSU AIRPORT    FAIR      76  65  68 N7        29.84S
BOLTON FIELD   FAIR      77  66  68 NE5       29.84S
RICKENBACK AFB FAIR      76  66  72 NE8       29.83S
NEWARK         FAIR      76  65  68 E7        29.85R
MARION         CLOUDY    72  62  71 NE10      29.87R
LANCASTER      MOCLDY    79  67  66 NE8       29.85S
ZANESVILLE     FAIR      76  64  66 NE6       29.86S
NEW PHILLY     MOCLDY    73  63  70 E3        29.88S
$$




USA.gov is the U.S. government's official web portal to all federal, state and local government web resources and services.